Location: Bohy
(49.9380°N, 13.5753°E)
Time: 10:29:11
(UTC+00:00)

Okean-O - Pass Details

Date: 19 May 2025
Orbit: 628 x 631 km, 98.0° (Epoch: 24 June)

Event Time Altitude Azimuth Distance (km) Brightness Sun altitude
Exits shadow 20:03:46 - 180° (S) 2,419 5.2 -9.8°
Reaches altitude 10° 20:04:47 10° 182° (S) 2,009 4.8 -9.9°
Maximum altitude 20:09:04 53° 260° (W) 784 3.3 -10.3°
Drops below altitude 10° 20:13:23 10° 337° (NNW) 2,025 6.5 -10.8°
Sets 20:15:39 0° 343° (NNW) 2,937 7.4 -11.0°
